Penn Yan, NY

3:58 AM EST on February 14, 2016 (GMT -0500)
Penn Yan

Weather History for KPEO - January, 2014

Change the Weather History Date:

Sunday, January 26, 2014

  Actual Average (KITH) Record (KITH)
Temperature  
Mean Temperature 15 °F -  
Max Temperature 25 °F 34 °F 68 °F (1950)
Min Temperature 5 °F 15 °F - (1997)
Degree Days  
Heating Degree Days 50    
Moisture  
Dew Point 4 °F    
Average Humidity 69    
Maximum Humidity 80    
Minimum Humidity 51    
Precipitation  
Precipitation 0.00 in - - ()
Sea Level Pressure  
Sea Level Pressure 29.64 in    
Wind  
Wind Speed 9 mph (SW)    
Max Wind Speed 16 mph    
Max Gust Speed 23 mph    
Visibility 7 miles    
Events Snow    
Averages and records for this station are not official NWS values.
T = Trace of Precipitation, MM = Missing Value Source: NWS Daily Summary

Daily Weather History Graph

Daily Weather History Graph

Search for Another Location

Airport or City:

Trip Planner

Search our weather history database for the weather conditions in past years. The results will help you decide how hot, cold, wet, or windy it might be!

Date:

Astronomy

Jan. 26, 2014 Rise Set
Actual Time 7:28 AM EST 5:13 PM EST
Civil Twilight 6:57 AM EST 5:44 PM EST
Nautical Twilight 6:23 AM EST 6:18 PM EST
Astronomical Twilight 5:50 AM EST 6:51 PM EST
Moon 3:03 AM EST (1/26) 1:00 PM EST (1/26)
Length of Visible Light 10h 46m
Length of Day
9h 45m
Waning Crescent, 24% of the Moon is Illuminated
Jan 26
Waning Crescent
Jan 30
New
Feb 6
First Quarter
Feb 14
Full
Feb 22
Last Quarter

Hourly Weather History & Observations

Time (EST) Temp. Windchill Dew Point Humidity Pressure Visibility Wind Dir Wind Speed Gust Speed Precip Events Conditions
12:07 AM 10.9 °F 0.2 °F 3.0 °F 70% 29.55 in 2.5 mi WNW 6.9 mph - 0.00 in Snow Light Snow
12:24 AM 10.0 °F -0.9 °F 3.0 °F 73% 29.55 in 5.0 mi WNW 6.9 mph - 0.00 in Snow Light Snow
12:30 AM 10.0 °F 0.4 °F 3.9 °F 76% 29.56 in 2.0 mi West 5.8 mph - 0.00 in Snow Light Snow
12:38 AM 10.0 °F -0.9 °F 3.9 °F 76% 29.56 in 1.5 mi West 6.9 mph - 0.00 in Snow Light Snow
12:46 AM 10.9 °F -0.8 °F 3.9 °F 73% 29.56 in 2.5 mi WNW 8.1 mph - 0.00 in Snow Light Snow
12:53 AM 10.9 °F -3.4 °F 3.0 °F 70% 29.62 in 6.0 mi West 11.5 mph - 0.00 in Snow Light Snow
1:21 AM 10.0 °F -0.9 °F 1.0 °F 67% 29.58 in 9.0 mi West 6.9 mph - 0.00 in   Overcast
1:35 AM 10.0 °F -1.9 °F 1.9 °F 70% 29.59 in 2.5 mi West 8.1 mph - 0.00 in Snow Light Snow
1:37 AM 10.0 °F -4.5 °F 3.0 °F 73% 29.59 in 1.8 mi West 11.5 mph 17.3 mph 0.00 in Snow Light Snow
1:53 AM 9.0 °F -2.2 °F 3.9 °F 80% 29.65 in 1.0 mi West 6.9 mph - 0.00 in Snow Light Snow
2:09 AM 9.0 °F -0.9 °F 3.9 °F 80% 29.61 in 2.0 mi WSW 5.8 mph - 0.00 in Snow Light Snow
2:12 AM 9.0 °F -3.2 °F 3.9 °F 80% 29.61 in 3.0 mi WSW 8.1 mph - 0.00 in Snow Light Snow
2:29 AM 8.1 °F -7.0 °F -0.0 °F 70% 29.62 in 10.0 mi WSW 11.5 mph - 0.00 in   Overcast
2:53 AM 7.0 °F -6.6 °F -0.9 °F 70% 29.68 in 10.0 mi WSW 9.2 mph - 0.00 in   Overcast
3:53 AM 7.0 °F -5.7 °F -0.9 °F 70% 29.70 in 10.0 mi SSW 8.1 mph - N/A   Overcast
4:53 AM 5.0 °F -6.9 °F -2.9 °F 70% 29.71 in 10.0 mi SW 6.9 mph - N/A   Clear
5:18 AM 6.1 °F -2.8 °F -2.0 °F 69% 29.67 in 10.0 mi SSW 4.6 mph - N/A   Mostly Cloudy
5:26 AM 6.1 °F -4.3 °F -2.0 °F 69% 29.67 in 8.0 mi SSW 5.8 mph - 0.00 in Snow Light Snow
5:33 AM 6.1 °F -6.8 °F -0.9 °F 73% 29.67 in 5.0 mi SSW 8.1 mph - 0.00 in Snow Light Snow
5:53 AM 6.1 °F -7.8 °F -0.0 °F 76% 29.73 in 10.0 mi SW 9.2 mph - 0.00 in   Overcast
6:17 AM 7.0 °F -11.0 °F -4.0 °F 61% 29.68 in 10.0 mi West 16.1 mph 23.0 mph N/A   Scattered Clouds
6:53 AM 5.0 °F -6.9 °F -5.1 °F 63% 29.76 in 10.0 mi SW 6.9 mph - N/A   Clear
7:53 AM 5.0 °F -12.3 °F -6.0 °F 61% 29.80 in 10.0 mi SW 13.8 mph - N/A   Clear
8:53 AM 6.1 °F -6.8 °F -6.0 °F 58% 29.80 in 10.0 mi SW 8.1 mph - N/A   Clear
9:53 AM 8.1 °F -7.7 °F -6.0 °F 53% 29.80 in 10.0 mi WSW 12.7 mph 20.7 mph N/A   Clear
10:53 AM 10.0 °F -2.9 °F -4.0 °F 53% 29.80 in 10.0 mi SW 9.2 mph - N/A   Clear
11:53 AM 12.0 °F 1.5 °F -2.0 °F 53% 29.77 in 10.0 mi SSW 6.9 mph - N/A   Mostly Cloudy
12:53 PM 12.9 °F -0.2 °F -2.0 °F 51% 29.73 in 10.0 mi SSW 10.4 mph - N/A   Overcast
1:41 PM 12.9 °F -1.6 °F 3.9 °F 67% 29.66 in 2.0 mi South 12.7 mph - 0.00 in Snow Light Snow
1:49 PM 12.2 °F -2.5 °F 5.0 °F 73% 29.66 in 1.2 mi South 12.7 mph - 0.00 in Snow Light Snow
1:53 PM 12.0 °F -1.3 °F 5.0 °F 73% 29.72 in 1.2 mi South 10.4 mph - 0.00 in Snow Light Snow
2:05 PM 12.0 °F -0.4 °F 6.1 °F 77% 29.64 in 0.5 mi South 9.2 mph - 0.00 in Snow Snow
2:21 PM 12.9 °F 1.6 °F 7.0 °F 77% 29.64 in 1.2 mi South 8.1 mph - 0.00 in Snow Light Snow
2:32 PM 12.9 °F -0.9 °F 6.1 °F 74% 29.63 in 2.0 mi South 11.5 mph - 0.00 in Snow Light Snow
2:53 PM 14.0 °F 2.0 °F 6.1 °F 71% 29.67 in 2.5 mi South 9.2 mph - 0.00 in Snow Light Snow
3:09 PM 14.0 °F -0.2 °F 7.0 °F 74% 29.61 in 4.0 mi South 12.7 mph - 0.00 in Snow Light Snow
3:53 PM 15.1 °F 0.5 °F 5.0 °F 64% 29.67 in 10.0 mi South 13.8 mph 20.7 mph 0.00 in   Overcast
4:53 PM 16.0 °F 1.1 °F 5.0 °F 62% 29.64 in 10.0 mi South 15.0 mph - N/A   Overcast
5:53 PM 17.1 °F 3.6 °F 6.1 °F 62% 29.62 in 6.0 mi South 12.7 mph 19.6 mph 0.00 in Snow Light Snow
6:53 PM 17.1 °F 2.5 °F 9.0 °F 71% 29.60 in 5.0 mi South 15.0 mph - 0.00 in Snow Light Snow
7:37 PM 19.0 °F 6.8 °F 9.0 °F 65% 29.55 in 10.0 mi SSW 11.5 mph - 0.00 in   Overcast
7:49 PM 19.4 °F 7.2 °F 10.4 °F 68% 29.55 in 10.0 mi South 11.5 mph - 0.00 in   Overcast
7:53 PM 19.0 °F 6.8 °F 10.0 °F 68% 29.61 in 10.0 mi South 11.5 mph - 0.00 in   Overcast
8:06 PM 19.0 °F 6.1 °F 10.0 °F 68% 29.55 in 10.0 mi South 12.7 mph - N/A   Overcast
8:53 PM 19.9 °F 5.7 °F 10.9 °F 68% 29.60 in 10.0 mi South 16.1 mph 23.0 mph N/A   Overcast
9:53 PM 21.9 °F 9.8 °F 12.9 °F 68% 29.59 in 10.0 mi South 12.7 mph - N/A   Overcast
10:53 PM 24.1 °F 13.7 °F 16.0 °F 71% 29.57 in 10.0 mi South 10.4 mph - N/A   Overcast
11:42 PM 25.0 °F 14.2 °F 18.0 °F 75% 29.50 in 10.0 mi South 11.5 mph - N/A   Overcast
11:53 PM 25.0 °F 14.8 °F 18.0 °F 75% 29.53 in 10.0 mi South 10.4 mph - N/A   Overcast